Flag for Switzerland

Past Weather in 47°13'24.8"N, 8°14'59.8"E, Switzerland — Yesterday and Last 2 Weeks

Now
53 °F

Cool.


Feels Like: 53 °F
Forecast: 48 / 44 °F
Wind: 3 mph from Northwest

Location: Zuerich-Fluntern
Current Time: Oct 25, 2020 at 12:56:06 pm
Latest Report: Oct 25, 2020 at 12:00 pm
Visibility: N/A
Pressure29.85 "Hg
Humidity: 79%
Dew Point: 47 °F
Location of 47°13'24.8"N, 8°14'59.8"ELocation

Past Weather in 47°13'24.8"N, 8°14'59.8"E — Graph

°F

47°13'24.8"N, 8°14'59.8"E Temperature Yesterday

Maximum temperature yesterday: 59 °F (at 4:00 pm)
Minimum temperature yesterday: 47 °F (at 11:00 pm)
Average temperature yesterday: 53 °F

High & Low Weather Summary for the Past Weeks

 TemperatureHumidityPressure
High63 °F (Oct 22, 4:00 pm)100% (Oct 20, 5:00 am)30.27 "Hg (Oct 20, 5:00 am)
Low38 °F (Oct 12, 4:00 am)48% (Oct 20, 4:00 pm)29.83 "Hg (Oct 13, 5:00 pm)
Average47 °F85%30.06 "Hg
* Reported Oct 10 12:00 pm — Oct 25 11:00 am, 47°13'24.8"N, 8°14'59.8"E. Weather by CustomWeather, © 2020

Note: Actual official high and low records may vary slightly from our data, if they occured in-between our weather recording intervals... More about our weather records

47°13'24.8"N, 8°14'59.8"E Weather History for the Previous 24 Hours

Scroll right to see more
 ConditionsComfort  
Time TempWeatherWind HumidityBarometerVisibility
11:00 am
Sun, Oct 25
50 °FCool.2 mph81%29.88 "HgN/A
10:00 am48 °FCool.1 mph88%29.89 "HgN/A
9:00 am47 °FCool.1 mph87%29.91 "HgN/A
8:00 am45 °FQuite cool.No wind95%29.93 "HgN/A
7:00 am43 °FQuite cool.1 mph97%29.94 "HgN/A
6:00 am43 °FQuite cool.1 mph98%29.96 "HgN/A
5:00 am44 °FQuite cool.1 mph97%29.96 "HgN/A
4:00 am45 °FCool.1 mph99%29.97 "HgN/A
3:00 am44 °FQuite cool.1 mph97%29.99 "HgN/A
2:00 am44 °FQuite cool.1 mph97%30.00 "HgN/A
2:00 am45 °FCool.1 mph97%30.01 "HgN/A
1:00 am46 °FCool.2 mph96%30.01 "HgN/A
12:00 am46 °FCool.1 mph97%30.04 "HgN/A
11:00 pm
Sat, Oct 24
47 °FCool.1 mph97%30.05 "HgN/A
10:00 pm48 °FCool.1 mph96%30.06 "HgN/A
9:00 pm49 °FCool.1 mph94%30.07 "HgN/A
8:00 pm51 °FCool.2 mph89%30.07 "HgN/A
7:00 pm51 °FCool.1 mph91%30.06 "HgN/A
6:00 pm55 °FCool.2 mph74%30.05 "HgN/A
5:00 pm58 °FCool.3 mph68%30.05 "HgN/A
4:00 pm59 °FCool.6 mph64%30.06 "HgN/A
3:00 pm58 °FCool.7 mph65%30.08 "HgN/A
2:00 pm57 °FPartly sunny.7 mph68%30.10 "HgN/A
1:00 pm55 °FCool.5 mph77%30.13 "HgN/A
12:00 pm56 °FCool.7 mph78%30.13 "HgN/A
Weather by CustomWeather, © 2020

See weather overview